Weather History for CYXX - November, 2013

Change the Weather History Date:

Friday, November 8, 2013

  Actual Average Record
Temperature  
Mean Temperature 48 °F -  
Max Temperature 52 °F 46 °F 59 °F (1996)
Min Temperature 43 °F 35 °F 35 °F (1997)
Degree Days  
Heating Degree Days 18    
Moisture  
Dew Point 43 °F    
Average Humidity 86    
Maximum Humidity 100    
Minimum Humidity 65    
Precipitation  
Precipitation 0.08 in 0.29 in - ()
Sea Level Pressure  
Sea Level Pressure 30.09 in    
Wind  
Wind Speed 7 mph ()    
Max Wind Speed 13 mph    
Max Gust Speed -    
Visibility 13.0 miles    
Events Rain    
Averages and records for this station are not official NWS values.
T = Trace of Precipitation, MM = Missing Value Source: Averaged Metar Reports

Daily Weather History Graph

Daily Weather History Graph

Search for Another Location

Airport or City:

Trip Planner

Search our weather history database for the weather conditions in past years. The results will help you decide how hot, cold, wet, or windy it might be!

Date:

Astronomy

Nov. 08, 2013 Rise Set
Actual Time 7:08 AM PST 4:37 PM PST
Civil Twilight 6:34 AM PST 5:11 PM PST
Nautical Twilight 5:56 AM PST 5:49 PM PST
Astronomical Twilight 5:19 AM PST 6:26 PM PST
Moon 12:08 PM PST (11/8) 10:06 PM PST (11/8)
Length of Visible Light 10h 36m
Length of Day
9h 28m
Waxing Crescent, 34% of the Moon is Illuminated
Nov 8
Waxing Crescent
Nov 9
First Quarter
Nov 17
Full
Nov 25
Last Quarter
Dec 2
New

Hourly Weather History & Observations

Time (PST) Temp. Windchill Dew Point Humidity Pressure Visibility Wind Dir Wind Speed Gust Speed Precip Events Conditions
12:00 AM 48.2 °F - 46.4 °F 93% 29.94 in 10.0 mi South 10.4 mph - N/A Rain Light Rain
1:00 AM 46.4 °F 41.5 °F 44.6 °F 93% 29.95 in 10.0 mi South 10.4 mph - N/A Rain Light Rain
2:00 AM 46.4 °F 41.1 °F 44.6 °F 93% 29.95 in 10.0 mi South 11.5 mph - N/A Rain Light Rain
3:00 AM 46.4 °F 41.1 °F 44.6 °F 93% 29.97 in 3.0 mi SSW 11.5 mph - N/A Rain Light Rain
4:00 AM 46 °F - 45 °F 95% 30.00 in 6 mi SSW 10.4 mph - - Rain Light Rain
4:00 AM 46.4 °F 41.9 °F 44.6 °F 93% 30.00 in 6.0 mi SSW 9.2 mph - N/A Rain Light Rain
5:00 AM 44.6 °F 39.2 °F 44.6 °F 100% 30.01 in 6.0 mi South 10.4 mph - N/A Rain Rain
5:45 AM 46.4 °F 41.9 °F 44.6 °F 93% 30.03 in 8.0 mi South 9.2 mph - N/A Rain Light Rain
6:00 AM 46.4 °F 43.5 °F 44.6 °F 93% 30.04 in 8.0 mi South 5.8 mph - N/A Rain Light Rain
6:35 AM 44.6 °F 43.1 °F 44.6 °F 100% 30.04 in 10.0 mi South 3.5 mph - N/A   Overcast
7:00 AM 46.4 °F 44.3 °F 44.6 °F 93% 30.06 in 15.0 mi South 4.6 mph - N/A   Overcast
8:00 AM 46.4 °F 42.9 °F 42.8 °F 87% 30.08 in 15.0 mi South 6.9 mph - N/A   Overcast
9:00 AM 46.4 °F 44.3 °F 42.8 °F 87% 30.10 in 15.0 mi South 4.6 mph - N/A   Mostly Cloudy
10:00 AM 48 °F - 44 °F 81% 30.12 in 19 mi South 8.1 mph - -   Partly Cloudy
10:00 AM 48.2 °F - 44.6 °F 87% 30.12 in 20.0 mi South 8.1 mph - N/A   Mostly Cloudy
11:00 AM 51.8 °F - 42.8 °F 71% 30.12 in 20.0 mi South 12.7 mph - N/A   Mostly Cloudy
12:00 PM 50.0 °F - 41.0 °F 71% 30.12 in 20.0 mi SSW 8.1 mph - N/A   Scattered Clouds
1:00 PM 50.0 °F - 41.0 °F 71% 30.12 in 20.0 mi SSW 8.1 mph - N/A   Scattered Clouds
2:00 PM 50.0 °F - 41.0 °F 71% 30.12 in 20.0 mi SSW 5.8 mph - N/A   Scattered Clouds
3:00 PM 50.0 °F - 41.0 °F 71% 30.12 in 20.0 mi South 8.1 mph - N/A   Mostly Cloudy
4:00 PM 50 °F - 42 °F 65% 30.12 in 19 mi SW 4.6 mph - -   Partly Cloudy
4:00 PM 50.0 °F - 41.0 °F 71% 30.12 in 20.0 mi SW 4.6 mph - N/A   Mostly Cloudy
5:00 PM 48.2 °F - 41.0 °F 76% 30.13 in 20.0 mi SSW 3.5 mph - N/A   Mostly Cloudy
6:00 PM 44.6 °F 43.1 °F 41.0 °F 87% 30.14 in 15.0 mi NE 3.5 mph - N/A   Scattered Clouds
7:00 PM 44.6 °F 43.1 °F 41.0 °F 87% 30.14 in 15.0 mi NNW 3.5 mph - N/A   Mostly Cloudy
8:00 PM 44.6 °F - 41.0 °F 87% 30.15 in 10.0 mi North 2.3 mph - N/A   Mostly Cloudy
8:35 PM 44.6 °F - 42.8 °F 93% 30.16 in 10.0 mi NE 2.3 mph - N/A Rain Light Rain
9:00 PM 44.6 °F 41.4 °F 42.8 °F 93% 30.17 in 8.0 mi NNE 5.8 mph - N/A Rain Light Rain
10:00 PM 45 °F - 43 °F 89% 30.17 in 7 mi ENE 2.3 mph - - Rain Light Rain
10:00 PM 44.6 °F - 42.8 °F 93% 30.17 in 8.0 mi Calm Calm - N/A Rain Light Rain
11:00 PM 44.6 °F 42.2 °F 42.8 °F 93% 30.17 in 10.0 mi NNE 4.6 mph - N/A Rain Light Rain